AirNav   Pilot Hours Calculator
 
 1083 users online  

1D2 Canton-Plymouth-Mettetal Airport
Plymouth, Michigan, USA

GOING TO PLYMOUTH?


FAA INFORMATION EFFECTIVE 15 JULY 2021

Location

FAA Identifier: 1D2
Lat/Long: 42-20-52.1000N 083-27-22.8000W
42-20.868333N 083-27.380000W
42.3478056,-83.4563333
(estimated)
Elevation: 696.1 ft. / 212.2 m (surveyed)
Variation: 05W (1980)
From city: 2 miles S of PLYMOUTH, MI
Time zone: UTC -4 (UTC -5 during Standard Time)
Zip code: 48187

Airport Operations

Airport use: Open to the public
Activation date: 03/1942
Control tower: no
ARTCC: CLEVELAND CENTER
FSS: LANSING FLIGHT SERVICE STATION
NOTAMs facility: LAN (NOTAM-D service available)
Attendance: SAT-SUN ON CALL, ALL MON-FRI 0700-1600
Wind indicator: lighted
Segmented circle: yes
Lights: ACTVT MIRL RY 18/36, PAPI RY 36 - CTAF
Beacon: white-green (lighted land airport)
Operates sunset to sunrise.

Airport Communications

CTAF/UNICOM: 122.7
DETROIT APPROACH: 118.95
DETROIT DEPARTURE: 118.95
WX ASOS at YIP (7 nm SW): PHONE 734-961-6843
WX ASOS at DTW (9 nm SE): PHONE 734-955-5015
WX ASOS at ARB (15 nm SW): PHONE 734-668-7173
WX AWOS-3 at VLL (17 nm NE): 119.475 (248-288-4649)
WX ASOS at PTK (19 nm N): 125.025 (248-886-8551)
WX AWOS-3 at ONZ (20 nm SE): 119.675 (734-692-9686)

Nearby radio navigation aids

VOR radial/distance  VOR name  Freq  Var
SVMr124/7.1SALEM VORTAC114.3003W
DXOr340/9.0DETROIT VOR/DME113.4006W
CRLr003/18.0CARLETON VOR/DME115.7003W
FNTr167/39.3FLINT VORTAC116.9006W

 
NDB name  Hdg/Dist  Freq  Var  ID
GROSSE ILE325/20.041907WRYS .-. -.-- ...
TECUMSEH051/26.823906WTCU - -.-. ..-
ADRIAN050/39.827806WADG .- -.. --.

Airport Services

Fuel available: 100LL
100LL:24 HR SELF SERVE
Parking: hangars and tiedowns
Airframe service: NONE
Powerplant service: NONE
Bottled oxygen: NONE
Bulk oxygen: NONE

Runway Information

Runway 18/36

Dimensions: 2302 x 75 ft. / 702 x 23 m
Surface: asphalt/grooved, in fair condition
Weight bearing capacity: 
Single wheel: 12.5
Runway edge lights: medium intensity
RUNWAY 18  RUNWAY 36
Latitude: 42-21.057013N42-20.678285N
Longitude: 083-27.389617W083-27.369427W
Elevation: 696.0 ft.685.4 ft.
Traffic pattern: leftleft
Runway heading: 182 magnetic, 177 true002 magnetic, 357 true
Markings: basic, in good conditionbasic, in good condition
Visual slope indicator: 2-light PAPI on left (4.00 degrees glide path)4-light PAPI on right (3.00 degrees glide path)
Runway end identifier lights: no
Touchdown point: yes, no lightsyes, no lights
Obstructions: 15 ft. road, 312 ft. from runway, 7:1 slope to clear
APCH RATIO 20:1 FM THLD
73 ft. trees, 1667 ft. from runway, 245 ft. left of centerline, 20:1 slope to clear

Airport Ownership and Management from official FAA records

Ownership: Publicly-owned
Owner: STATE OF MICHIGAN - MDOT
2700 EAST AIRPORT SERVICE DR
LANSING, MI 48906
Phone 517-335-8521
Manager: JIM MORENCY
8550 NORTH LILLEY RD
CANTON, MI 48187
Phone 734-459-0012

Airport Operational Statistics

Aircraft based on the field: 84
Single engine airplanes: 79
Multi engine airplanes: 2
Helicopters: 3
    
Aircraft operations: avg 38/day *
71% local general aviation
29% transient general aviation
* for 12-month period ending 31 December 2016

Additional Remarks

NOISE SENSITIVE AREAS NORTH & SOUTH OF ARPT. CTC AMGR 734-459-0012 FOR NOISE ABATEMENT PROCEDURES.
DEER AND BIRDS ON & INVOF ARPT.
FOR CD CTC DETROIT APCH AT 800-499-8181.

Instrument Procedures

NOTE: All procedures below are presented as PDF files. If you need a reader for these files, you should download the free Adobe Reader.

NOT FOR NAVIGATION. Please procure official charts for flight.
FAA instrument procedures published for use from 15 July 2021 at 0901Z to 12 August 2021 at 0900z.

 
IAPs - Instrument Approach Procedures
RNAV (GPS)-B   download (163KB)
NOTE: Special Take-Off Minimums/Departure Procedures apply   download (122KB)

Other nearby airports with instrument procedures:

KYIP - Willow Run Airport (7 nm SW)
KDTW - Detroit Metro Wayne County Airport (9 nm SE)
Y47 - Oakland Southwest Airport (12 nm NW)
KARB - Ann Arbor Municipal Airport (15 nm SW)
KVLL - Oakland/Troy Airport (17 nm NE)
KPTK - Oakland County International Airport (19 nm N)
KONZ - Grosse Ile Municipal Airport (20 nm SE)
 
Loc | Ops | Rwys | IFR | FBO | Links
Com | Nav | Svcs | Stats | Notes
Area around 1D2 (Canton-Plymouth-Mettetal Airport)
 
Road maps at: MapQuest Bing Google
 
Aerial photo
WARNING: Photo may not be current or correct
Aerial photo of 1D2 (Canton-Plymouth-Mettetal Airport)
Photo by Mike Mee
Taken in the Summer of 2017
looking south.

Do you have a better or more recent aerial photo of Canton-Plymouth-Mettetal Airport that you would like to share? If so, please send us your photo.

 
Sectional chart

 
Airport distance calculator
Flying to Canton-Plymouth-Mettetal Airport? Find the distance to fly.

From to 1D2

Sunrise and sunset
Times for 04-Aug-2021
 Local
(UTC-4)
 Zulu
(UTC)
Morning civil twilight05:5909:59
Sunrise06:3010:30
Sunset20:4900:49
Evening civil twilight21:2101:21

Current date and time
Zulu (UTC)  05-Aug-2021 00:34:29
Local (UTC-4)  04-Aug-2021 20:34:29
 
METAR
KYIP 
8nm SW 
042353Z 31005KT 10SM SCT060 OVC120 24/17 A3010 RMK AO2 SLP188 T02390167 10300 20239 55000
KDTW 
9nm SE 
042353Z 17005KT 8SM FEW050 SCT065 BKN220 24/14 A3010 RMK AO2 SLP189 T02440139 10283 20239 55003
KARB 
15nm SW 
734-668-7173
050003Z AUTO 20008KT 3SM -RA BR SCT036 BKN080 OVC100 19/17 A3010 RMK AO2 P0002 T01940172
KVLL 
17nm NE 
050015Z AUTO 13003KT 10SM CLR 26/13 A3011 RMK AO2 T02630127
KPTK 
19nm N 
042353Z VRB04KT 9SM BKN060 OVC250 24/16 A3009 RMK AO2 SLP184 60014 T02440161 10272 20228 56005
KDET 
20nm E 
042353Z 15006KT 10SM CLR 26/14 A3009 RMK AO2 SLP189 T02610139 10283 20261 56004
TAF
KYIP 
8nm SW 
042052Z 0421/0518 18004KT P6SM BKN070 FM050200 VRB03KT P6SM SCT070 FM050900 25006KT 6SM HZ FEW060 FM051300 19005KT P6SM SCT060
KDTW 
9nm SE 
042051Z 0421/0524 18004KT P6SM BKN070 FM050200 VRB03KT P6SM SCT070 FM050900 25006KT 6SM HZ FEW060 FM051300 19005KT P6SM SCT060
KPTK 
19nm N 
042137Z 0422/0518 20004KT P6SM BKN060 TEMPO 0422/0424 5SM -RA HZ OVC060 FM050200 VRB03KT P6SM SCT070 FM051300 19005KT P6SM SCT060
KDET 
20nm E 
041726Z 0418/0518 11006KT P6SM SCT060 FM050200 VRB03KT P6SM SCT070 FM051300 19005KT P6SM SCT060
NOTAMs
Click for the latest NOTAMs
NOTAMs are issued by the DoD/FAA and will open in a separate window not controlled by AirNav.

 

 
 

FBO, Fuel Providers, and Aircraft Ground Support

  
 Business Name 
 
 Contact 
 
 Services / Description 
 
Fuel Prices
 
Comments
  
MDOT - Office of Aeronautics 734-459-0012
no information available

If you are affiliated with MDOT - Office of Aeronautics and would like to show here your services, contact info, web link, logo, and more, click here
100LL
PS $4.45 
 Updated 08-Jul-2021
 
   1 read write
PS=Pump service
Update Fuel Prices
 

Would you like to see your business listed on this page?

 If your business provides an interesting product or service to pilots, flight crews, aircraft, or users of the Canton-Plymouth-Mettetal Airport, you should consider listing it here.  To start the listing process, click on the button below
 
Add a business
 

Other Pages about Canton-Plymouth-Mettetal Airport

Page from the Michigan Airport Directory (PDF)
 
Update a link
 
Copyright © AirNav, LLC. All rights reserved. Privacy Policy  Contact